INTELSAT 28 (IS-28) (37392 NORAD) Tracking and Keplerian Element Data

This shows tracking and keplerian element data for the satellite.

Feedback or suggestion? Click here.




ElementValue
Catalog37392
NameINTELSAT 28 (IS-28)
Epoch Orbit4828
Epoch Day34.68400828
Epoch Year2025
RAAN89.5842
Inclination0.5135
Eccentricity0.0004219
Argument of Perigee219.656
Mean Anonmoly73.2775
Mean Motion1.00143114
Decay Rate-6E-08
L11 37392U 11016A 25034.68400828 -.00000006 00000+0 00000+0 0 9998
L22 37392 0.5135 89.5842 0004219 219.6560 73.2775 1.00143114 48289



Live tracking and technical data element details for INTELSAT 28 (IS-28) (NORAD 37392). INTELSAT 28 (IS-28) can be tracked NOW for your location showing map with azimuth and elevation plus other details from your city location.







IsCatalogInMostPopularTable: catalog: 37392, numindb: 510
Update: records affected: 1



GetName: 37392 INTELSAT 28 (IS-28)

Hit Count: updated at: Fri, 16 May 2025 11:21:57 GMT